Weather past 2 weeks in Willemstad, Curaçao

Now
88 °F

Passing clouds.


Feels Like: 94 °F
Forecast: N/A
Wind: 14 mph from East

Location: Hato Airport - Curacao

Current Time: Aug 2, 2015 at 4:40:20 PM

Latest Report: Aug 2, 2015 at 4:00 PM


Visibility: N/A

Pressure: 29.86 "Hg

Humidity: 59%

Dew point: 72 °F

Location of WillemstadLocation

Historic Weather in Willemstad — Graph

°F

Willemstad temperature yesterday

Maximum temperature yesterday: 88 °F (at 11:00 AM)
Minimum temperature yesterday: 81 °F (at 12:00 AM)
Average temperature yesterday: 84 °F

Past Weeks' High & Low Weather Summary

 TemperatureHumidityPressure
High90 °F (Jul 19, 2:00 PM)94% (Jul 22, 3:00 AM)30.07 "Hg (Jul 22, 3:00 AM)
Low79 °F (Jul 20, 5:00 AM)52% (Aug 2, 12:00 PM)29.86 "Hg (Jul 21, 4:00 PM)
Average83 °F75%29.94 "Hg
* Reported Jul 18 3:00 PM — Aug 2 3:00 PM, Willemstad, Weather by CustomWeather, © 2015

Note: Actual official high and low records may vary slightly from our data, if they occured in-between our weather recording intervals... More about our weather records

Advertising

Willemstad weather history for previous 24 hours

 ConditionsComfort  
Time TempWeatherWind HumidityBarometerVisibility
3:00 PM
Sun, Aug 2
90 °FPassing clouds.16 mph55%29.86 "HgN/A
2:00 PM90 °FPassing clouds.16 mph52%29.89 "HgN/A
1:00 PM90 °FScattered clouds.15 mph55%29.92 "HgN/A
12:00 PM90 °FScattered clouds.15 mph52%29.92 "HgN/A
11:00 AM88 °FScattered clouds.15 mph62%29.92 "HgN/A
10:00 AM86 °FScattered clouds.15 mph66%29.92 "HgN/A
9:00 AM84 °FScattered clouds.14 mph70%29.92 "HgN/A
8:00 AM82 °FScattered clouds.14 mph74%29.92 "HgN/A
7:00 AM81 °FPassing clouds.12 mph79%29.92 "HgN/A
6:00 AM81 °FPassing clouds.10 mph79%29.89 "HgN/A
5:00 AM81 °FPassing clouds.8 mph74%29.92 "HgN/A
4:00 AM81 °FPassing clouds.9 mph79%29.92 "HgN/A
3:00 AM81 °FPassing clouds.10 mph79%29.92 "HgN/A
2:00 AM81 °FPassing clouds.13 mph79%29.92 "HgN/A
1:00 AM81 °FPassing clouds.12 mph79%29.92 "HgN/A
12:00 AM81 °FPassing clouds.12 mph79%29.95 "HgN/A
11:00 PM
Sat, Aug 1
82 °FPassing clouds.14 mph74%29.95 "HgN/A
10:00 PM82 °FPassing clouds.13 mph74%29.92 "HgN/A
9:00 PM82 °FPassing clouds.15 mph74%29.92 "HgN/A
8:00 PM82 °FPassing clouds.15 mph74%29.89 "HgN/A
7:00 PM84 °FPassing clouds.14 mph70%29.86 "HgN/A
6:00 PM84 °FPassing clouds.14 mph74%29.86 "HgN/A
5:00 PM86 °FScattered clouds.16 mph66%29.86 "HgN/A
4:00 PM88 °FScattered clouds.15 mph66%29.86 "HgN/A
Weather by CustomWeather, © 2015

See weather overviewHow to use our weather pages